IRIDIUM 62 [P]

Last updated on Oct. 26, 2018, 12:08 a.m. UTC

1 25285U 98021A   18298.43394891  .03285639 -84913-6  13440-2 0  9993
2 25285  86.4175  16.6356 0398509 346.4120  12.6640 15.45916993 76101

Satellite is not in orbit.